DLH2JV EDDM-EDDV

Flight info

Callsign DLH2JV
Flight time 0h 50m
Altitude 30000
Route INPUD3Q/08L INPUD Y102 UPALA M726 LASTO M852 BIRKA/N0425F240 T803 GITEX GITEX4R
Aircraft A320/M-SDE3FGHIRWY/LB1

Departure

Time 2026-05-01 11:10
Airport Munich Airport (EDDM)

Arrival

Time 2026-05-01 12:00
Airport Hannover Airport (EDDV)
Time Latitude Longitude Altitude Speed Heading
2026-05-01 10:50 48.35406 11.79303 1471 ft 0 kts 263°
2026-05-01 10:58 48.35406 11.79313 1461 ft 2 kts 263°
2026-05-01 10:59 48.35408 11.79339 1469 ft 2 kts 263°
2026-05-01 10:59 48.35410 11.79364 1465 ft 2 kts 263°
2026-05-01 10:59 48.35412 11.79390 1464 ft 2 kts 263°
2026-05-01 10:59 48.35414 11.79415 1463 ft 3 kts 269°
2026-05-01 11:00 48.35411 11.79442 1464 ft 3 kts 306°
2026-05-01 11:00 48.35398 11.79460 1463 ft 3 kts 342°
2026-05-01 11:00 48.35391 11.79463 1463 ft 0 kts 353°
2026-05-01 11:02 48.35401 11.79462 1471 ft 6 kts 355°
2026-05-01 11:02 48.35443 11.79457 1471 ft 5 kts 354°
2026-05-01 11:02 48.35476 11.79452 1467 ft 4 kts 354°
2026-05-01 11:03 48.35501 11.79447 1471 ft 4 kts 353°
2026-05-01 11:03 48.35548 11.79439 1468 ft 9 kts 353°
2026-05-01 11:03 48.35625 11.79425 1466 ft 12 kts 353°
2026-05-01 11:03 48.35710 11.79409 1468 ft 12 kts 353°
2026-05-01 11:04 48.35789 11.79395 1468 ft 11 kts 353°
2026-05-01 11:04 48.35863 11.79383 1471 ft 10 kts 354°
2026-05-01 11:04 48.35924 11.79355 1464 ft 8 kts 337°
2026-05-01 11:04 48.35975 11.79336 1471 ft 7 kts 353°
2026-05-01 11:05 48.36018 11.79329 1471 ft 6 kts 353°
2026-05-01 11:05 48.36076 11.79299 1468 ft 12 kts 314°
2026-05-01 11:05 48.36082 11.79151 1469 ft 16 kts 265°
2026-05-01 11:05 48.36072 11.78994 1471 ft 14 kts 264°
2026-05-01 11:06 48.36061 11.78853 1464 ft 13 kts 263°
2026-05-01 11:06 48.36051 11.78725 1471 ft 12 kts 263°
2026-05-01 11:06 48.36045 11.78648 1471 ft 11 kts 263°
2026-05-01 11:07 48.36162 11.78487 1471 ft 15 kts 19°
2026-05-01 11:07 48.36219 11.78540 1471 ft 14 kts 52°
2026-05-01 11:07 48.36270 11.78644 1465 ft 0 kts 54°
2026-05-01 11:07 48.36271 11.78647 1465 ft 1 kts 54°
2026-05-01 11:08 48.36291 11.78689 1461 ft 9 kts 54°
2026-05-01 11:08 48.36342 11.78792 1465 ft 15 kts 53°
2026-05-01 11:08 48.36453 11.79064 1464 ft 17 kts 77°
2026-05-01 11:09 48.36470 11.79281 1471 ft 39 kts 84°
2026-05-01 11:09 48.36526 11.80068 1459 ft 110 kts 83°
2026-05-01 11:09 48.36635 11.81457 1686 ft 146 kts 83°
2026-05-01 11:10 48.36909 11.84676 3129 ft 162 kts 83°
2026-05-01 11:10 48.37311 11.86310 3722 ft 182 kts 50°
2026-05-01 11:10 48.38555 11.87208 4152 ft 217 kts 13°
2026-05-01 11:10 48.40161 11.87307 4643 ft 246 kts
2026-05-01 11:11 48.41900 11.86532 5028 ft 280 kts 327°
2026-05-01 11:11 48.43193 11.84332 5904 ft 289 kts 305°
2026-05-01 11:11 48.44382 11.81884 6993 ft 291 kts 310°
2026-05-01 11:11 48.45689 11.79489 7981 ft 293 kts 312°
2026-05-01 11:12 48.47015 11.77188 8928 ft 296 kts 314°
2026-05-01 11:12 48.48387 11.74848 9883 ft 299 kts 314°
2026-05-01 11:12 48.49772 11.72485 10761 ft 303 kts 314°
2026-05-01 11:12 48.51163 11.70091 11642 ft 305 kts 314°
2026-05-01 11:13 48.52562 11.67656 12515 ft 308 kts 314°
2026-05-01 11:13 48.53963 11.65199 13389 ft 310 kts 314°
2026-05-01 11:13 48.55370 11.62716 14227 ft 313 kts 314°
2026-05-01 11:13 48.56937 11.60433 14957 ft 313 kts 326°
2026-05-01 11:14 48.58817 11.58709 15397 ft 324 kts 339°
2026-05-01 11:14 48.60992 11.57423 15545 ft 346 kts 342°
2026-05-01 11:14 48.63316 11.56101 15667 ft 368 kts 342°
2026-05-01 11:14 48.65735 11.54723 15970 ft 382 kts 342°
2026-05-01 11:15 48.68238 11.53287 16522 ft 388 kts 342°
2026-05-01 11:15 48.70781 11.51816 17133 ft 392 kts 342°
2026-05-01 11:15 48.73342 11.50327 17749 ft 396 kts 342°
2026-05-01 11:15 48.75919 11.48822 18361 ft 399 kts 342°
2026-05-01 11:16 48.78525 11.47299 18923 ft 403 kts 342°
2026-05-01 11:16 48.81154 11.45769 19447 ft 406 kts 342°
2026-05-01 11:16 48.83800 11.44235 19985 ft 408 kts 342°
2026-05-01 11:16 48.86464 11.42693 20522 ft 411 kts 342°
2026-05-01 11:17 48.89143 11.41142 21053 ft 413 kts 342°
2026-05-01 11:17 48.91836 11.39573 21587 ft 415 kts 342°
2026-05-01 11:17 48.94540 11.37990 22117 ft 417 kts 341°
2026-05-01 11:17 48.97260 11.36393 22611 ft 420 kts 341°
2026-05-01 11:18 48.99987 11.34790 23107 ft 422 kts 341°
2026-05-01 11:18 49.02737 11.33174 23599 ft 424 kts 341°
2026-05-01 11:18 49.05497 11.31550 24062 ft 427 kts 341°
2026-05-01 11:18 49.08274 11.29917 24452 ft 429 kts 341°
2026-05-01 11:19 49.11070 11.28275 24814 ft 431 kts 341°
2026-05-01 11:19 49.13875 11.26622 25202 ft 433 kts 341°
2026-05-01 11:19 49.16694 11.24961 25594 ft 435 kts 341°
2026-05-01 11:19 49.19548 11.23381 25977 ft 436 kts 346°
2026-05-01 11:20 49.22473 11.22426 26328 ft 436 kts 354°
2026-05-01 11:20 49.25497 11.22163 26680 ft 436 kts
2026-05-01 11:20 49.28537 11.22195 27035 ft 438 kts
2026-05-01 11:20 49.31595 11.22230 27368 ft 440 kts
2026-05-01 11:21 49.34664 11.22262 27696 ft 442 kts
2026-05-01 11:21 49.37749 11.22291 28022 ft 444 kts
2026-05-01 11:21 49.40848 11.22314 28344 ft 446 kts
2026-05-01 11:21 49.43967 11.22336 28657 ft 449 kts
2026-05-01 11:22 49.47092 11.22357 28974 ft 450 kts
2026-05-01 11:22 49.50224 11.22381 29425 ft 449 kts
2026-05-01 11:22 49.53344 11.22402 29874 ft 448 kts
2026-05-01 11:22 49.56455 11.22426 30298 ft 448 kts
2026-05-01 11:23 49.59572 11.22441 30405 ft 447 kts
2026-05-01 11:23 49.62685 11.22445 30406 ft 446 kts
2026-05-01 11:23 49.68898 11.22445 30407 ft 447 kts
2026-05-01 11:24 49.75129 11.22448 30404 ft 447 kts
2026-05-01 11:25 49.84417 11.22497 30402 ft 447 kts
2026-05-01 11:25 49.93767 11.22562 30403 ft 448 kts
2026-05-01 11:26 50.03134 11.22626 30402 ft 448 kts
2026-05-01 11:27 50.09371 11.22660 30408 ft 448 kts
2026-05-01 11:27 50.15616 11.22678 30404 ft 449 kts
2026-05-01 11:28 50.21863 11.22718 30403 ft 449 kts
2026-05-01 11:28 50.28110 11.22761 30404 ft 449 kts
2026-05-01 11:29 50.37447 11.22608 30410 ft 450 kts 355°
2026-05-01 11:30 50.46809 11.21187 30409 ft 449 kts 356°
2026-05-01 11:30 50.53027 11.20248 30412 ft 449 kts 356°
2026-05-01 11:31 50.59242 11.19310 30409 ft 449 kts 356°
2026-05-01 11:31 50.65474 11.18368 30412 ft 449 kts 356°
2026-05-01 11:32 50.71692 11.17420 30402 ft 449 kts 355°
2026-05-01 11:32 50.77914 11.16469 30398 ft 449 kts 355°
2026-05-01 11:33 50.84141 11.15507 30398 ft 449 kts 355°
2026-05-01 11:33 50.90363 11.14542 30393 ft 449 kts 355°
2026-05-01 11:34 50.96544 11.13606 30392 ft 449 kts 356°
2026-05-01 11:34 51.02770 11.12649 30395 ft 450 kts 355°
2026-05-01 11:35 51.09005 11.11676 30398 ft 450 kts 355°
2026-05-01 11:35 51.15114 11.09473 30391 ft 453 kts 339°
2026-05-01 11:36 51.20880 11.05381 30395 ft 453 kts 337°
2026-05-01 11:36 51.26642 11.01270 30397 ft 454 kts 337°
2026-05-01 11:37 51.32367 10.97175 30400 ft 454 kts 337°
2026-05-01 11:37 51.38133 10.93039 30401 ft 454 kts 338°
2026-05-01 11:38 51.43957 10.89118 30402 ft 454 kts 340°
2026-05-01 11:38 51.49842 10.85401 30399 ft 454 kts 340°
2026-05-01 11:39 51.55715 10.81646 30395 ft 455 kts 339°
2026-05-01 11:39 51.61580 10.77809 30391 ft 455 kts 339°
2026-05-01 11:40 51.67447 10.73954 30399 ft 455 kts 339°
2026-05-01 11:40 51.73324 10.70087 30387 ft 456 kts 339°
2026-05-01 11:41 51.79191 10.66224 30393 ft 456 kts 339°
2026-05-01 11:41 51.82131 10.64280 30227 ft 457 kts 339°
2026-05-01 11:41 51.85083 10.62321 29936 ft 458 kts 339°
2026-05-01 11:41 51.88022 10.60363 29212 ft 458 kts 339°
2026-05-01 11:42 51.90958 10.58407 27873 ft 461 kts 339°
2026-05-01 11:42 51.93844 10.56265 26622 ft 453 kts 332°
2026-05-01 11:42 51.96434 10.53434 25431 ft 447 kts 322°
2026-05-01 11:42 51.98671 10.49990 24311 ft 442 kts 312°
2026-05-01 11:43 52.00524 10.46036 23085 ft 438 kts 303°
2026-05-01 11:43 52.01938 10.41687 22133 ft 434 kts 293°
2026-05-01 11:43 52.02941 10.37074 21324 ft 433 kts 288°
2026-05-01 11:44 52.04745 10.27700 19664 ft 436 kts 287°
2026-05-01 11:44 52.05641 10.22974 18845 ft 438 kts 287°
2026-05-01 11:44 52.06533 10.18240 17972 ft 438 kts 287°
2026-05-01 11:44 52.07408 10.13586 17642 ft 418 kts 287°
2026-05-01 11:45 52.08226 10.09231 17487 ft 389 kts 287°
2026-05-01 11:45 52.08991 10.05163 17349 ft 362 kts 287°
2026-05-01 11:45 52.09706 10.01355 17127 ft 343 kts 286°
2026-05-01 11:45 52.10389 9.97694 16606 ft 335 kts 286°
2026-05-01 11:46 52.11062 9.94090 16033 ft 332 kts 286°
2026-05-01 11:46 52.11730 9.90518 15438 ft 329 kts 286°
2026-05-01 11:46 52.12392 9.86967 14848 ft 326 kts 286°
2026-05-01 11:46 52.13048 9.83438 14268 ft 324 kts 286°
2026-05-01 11:47 52.13701 9.79940 13634 ft 322 kts 286°
2026-05-01 11:47 52.14360 9.76477 13008 ft 319 kts 286°
2026-05-01 11:47 52.15020 9.73037 12400 ft 316 kts 286°
2026-05-01 11:47 52.15675 9.69635 11861 ft 312 kts 286°
2026-05-01 11:48 52.16309 9.66371 11726 ft 293 kts 286°
2026-05-01 11:48 52.16914 9.63287 11510 ft 281 kts 286°
2026-05-01 11:48 52.17508 9.60274 11101 ft 276 kts 286°
2026-05-01 11:48 52.18095 9.57309 10643 ft 274 kts 286°
2026-05-01 11:49 52.18680 9.54362 10158 ft 272 kts 286°
2026-05-01 11:49 52.19264 9.51439 9660 ft 270 kts 286°
2026-05-01 11:49 52.19846 9.48546 9195 ft 268 kts 286°
2026-05-01 11:49 52.20422 9.45673 8700 ft 265 kts 286°
2026-05-01 11:50 52.20990 9.42858 8218 ft 263 kts 286°
2026-05-01 11:50 52.21561 9.40026 7748 ft 261 kts 286°
2026-05-01 11:50 52.22130 9.37232 7263 ft 259 kts 288°
2026-05-01 11:50 52.23071 9.34770 6779 ft 257 kts 318°
2026-05-01 11:51 52.24609 9.33385 6252 ft 252 kts 347°
2026-05-01 11:51 52.26332 9.32828 5705 ft 253 kts 353°
2026-05-01 11:51 52.28072 9.32420 5251 ft 253 kts 354°
2026-05-01 11:51 52.29817 9.32041 5027 ft 251 kts 354°
2026-05-01 11:52 52.30992 9.31793 5003 ft 251 kts 354°
2026-05-01 11:52 52.32726 9.31426 5006 ft 251 kts 354°
2026-05-01 11:52 52.34460 9.31059 5014 ft 252 kts 354°
2026-05-01 11:52 52.36194 9.30693 5012 ft 251 kts 354°
2026-05-01 11:53 52.37906 9.30335 5007 ft 252 kts 354°
2026-05-01 11:53 52.39642 9.29963 5014 ft 252 kts 354°
2026-05-01 11:53 52.41377 9.29590 5012 ft 251 kts 354°
2026-05-01 11:53 52.43107 9.29226 4927 ft 249 kts 354°
2026-05-01 11:54 52.44827 9.29083 4600 ft 246 kts 13°
2026-05-01 11:54 52.46294 9.30272 4287 ft 233 kts 52°
2026-05-01 11:54 52.46897 9.32568 4028 ft 215 kts 94°
2026-05-01 11:54 52.46517 9.34827 3938 ft 199 kts 115°
2026-05-01 11:55 52.46253 9.37007 3813 ft 196 kts 94°
2026-05-01 11:55 52.46231 9.39192 3587 ft 187 kts 95°
2026-05-01 11:55 52.46188 9.41296 3336 ft 182 kts 95°
2026-05-01 11:55 52.46137 9.43368 3089 ft 184 kts 95°
2026-05-01 11:56 52.46083 9.45477 2837 ft 186 kts 95°
2026-05-01 11:56 52.46030 9.47573 2583 ft 184 kts 95°
2026-05-01 11:56 52.45976 9.49665 2352 ft 183 kts 95°
2026-05-01 11:56 52.45923 9.51726 2099 ft 176 kts 95°
2026-05-01 11:57 52.45872 9.53697 1871 ft 169 kts 95°
2026-05-01 11:57 52.45823 9.55586 1672 ft 159 kts 95°
2026-05-01 11:57 52.45778 9.57312 1474 ft 145 kts 95°
2026-05-01 11:57 52.45736 9.58904 1281 ft 136 kts 97°
2026-05-01 11:58 52.45695 9.60415 1105 ft 131 kts 96°
2026-05-01 11:58 52.45656 9.61923 958 ft 134 kts 94°
2026-05-01 11:58 52.45576 9.64895 556 ft 127 kts 94°
2026-05-01 11:59 52.45532 9.66321 388 ft 125 kts 94°
2026-05-01 11:59 52.45495 9.67754 213 ft 127 kts 94°
2026-05-01 11:59 52.45456 9.69058 197 ft 88 kts 92°
2026-05-01 12:00 52.45435 9.69858 182 ft 31 kts 93°
2026-05-01 12:00 52.45425 9.70271 181 ft 38 kts 92°
2026-05-01 12:00 52.45506 9.70660 179 ft 6 kts 358°
2026-05-01 12:01 52.45554 9.70661 178 ft 7 kts
2026-05-01 12:01 52.45602 9.70665 178 ft 7 kts
2026-05-01 12:01 52.45639 9.70634 178 ft 7 kts 311°
2026-05-01 12:01 52.45655 9.70506 178 ft 14 kts 275°
2026-05-01 12:02 52.45661 9.70357 178 ft 13 kts 273°
2026-05-01 12:02 52.45663 9.70198 178 ft 19 kts 271°
2026-05-01 12:02 52.45670 9.69955 178 ft 21 kts 273°
2026-05-01 12:02 52.45677 9.69727 178 ft 20 kts 272°
2026-05-01 12:03 52.45688 9.69514 178 ft 15 kts 296°
2026-05-01 12:03 52.45745 9.69452 178 ft 9 kts 308°
2026-05-01 12:03 52.45759 9.69372 178 ft 8 kts 273°
2026-05-01 12:03 52.45787 9.69348 178 ft 4 kts
2026-05-01 12:04 52.45811 9.69367 178 ft 4 kts 30°
2026-05-01 12:04 52.45837 9.69392 178 ft 0 kts 30°